• In France
  • List of Countries
  • For 7 days
  • Water Temperature
  • Satellite Maps
  • Weather Map
  • Weather Widgets
  • user-avatar
    Login

    Hourly Weather Kahabroso

    Today, 19 October, Friday

    Time Temperature Precipitation Wind Pressure Humidity
    00:00 +6°C° 0 mm 2 mps 618 mmHg 62%
    01:00 +5°C° 0 mm 2 mps 618 mmHg 59%
    02:00 +5°C° 0 mm 2 mps 617 mmHg 56%
    03:00 +5°C° 0 mm 2 mps 617 mmHg 53%
    04:00 +5°C° 0 mm 2 mps 617 mmHg 51%
    05:00 +5°C° 0 mm 2 mps 617 mmHg 49%
    06:00 +5°C° 0 mm 2 mps 617 mmHg 48%
    07:00 +7°C° 0 mm 2 mps 618 mmHg 43%
    08:00 +9°C° 0 mm 2 mps 619 mmHg 38%
    09:00 +13°C° 0 mm 1 mps 620 mmHg 33%
    10:00 +14°C° 0 mm 2 mps 620 mmHg 31%
    11:00 +15°C° 0 mm 2 mps 620 mmHg 30%
    12:00 +16°C° 0 mm 2 mps 620 mmHg 29%
    13:00 +15°C° 0 mm 2 mps 620 mmHg 33%
    14:00 +15°C° 0 mm 2 mps 620 mmHg 37%
    15:00 +15°C° 0 mm 2 mps 620 mmHg 41%
    16:00 +13°C° 0 mm 2 mps 619 mmHg 51%
    17:00 +10°C° 0 mm 2 mps 618 mmHg 62%
    18:00 +9°C° 0 mm 1 mps 617 mmHg 72%
    19:00 +8°C° 0 mm 2 mps 617 mmHg 70%
    20:00 +7°C° 0 mm 2 mps 617 mmHg 69%
    21:00 +7°C° 0 mm 2 mps 617 mmHg 67%
    22:00 +7°C° 0 mm 2 mps 617 mmHg 66%
    23:00 +7°C° 0 mm 2 mps 616 mmHg 65%

    Tomorrow, 20 October, Saturday

    Time Temperature Precipitation Wind Pressure Humidity
    00:00 +6°C° 0 mm 2 mps 616 mmHg 64%
    01:00 +6°C° 0 mm 2 mps 616 mmHg 64%
    02:00 +6°C° 0 mm 2 mps 616 mmHg 63%
    03:00 +6°C° 0 mm 2 mps 615 mmHg 62%
    04:00 +6°C° 0 mm 2 mps 615 mmHg 60%
    05:00 +5°C° 0 mm 2 mps 615 mmHg 57%
    06:00 +5°C° 0 mm 2 mps 615 mmHg 55%
    07:00 +8°C° 0 mm 2 mps 616 mmHg 48%
    08:00 +11°C° 0 mm 1 mps 617 mmHg 41%
    09:00 +13°C° 0 mm 1 mps 618 mmHg 34%
    10:00 +14°C° 0 mm 1 mps 618 mmHg 32%
    11:00 +15°C° 0 mm 2 mps 618 mmHg 31%
    12:00 +16°C° 0 mm 2 mps 618 mmHg 30%
    13:00 +16°C° 0 mm 2 mps 618 mmHg 33%
    14:00 +15°C° 0 mm 2 mps 618 mmHg 36%
    15:00 +15°C° 0 mm 2 mps 617 mmHg 38%
    16:00 +13°C° 0 mm 2 mps 617 mmHg 47%
    17:00 +11°C° 0 mm 1 mps 616 mmHg 55%
    18:00 +9°C° 0 mm 1 mps 615 mmHg 64%
    19:00 +9°C° 0 mm 1 mps 615 mmHg 61%
    20:00 +9°C° 0 mm 1 mps 615 mmHg 59%
    21:00 +9°C° 0 mm 1 mps 615 mmHg 56%
    22:00 +8°C° 0 mm 1 mps 615 mmHg 54%
    23:00 +8°C° 0 mm 1 mps 615 mmHg 53%

    Day after tomorrow, 21 October, Sunday

    Time Temperature Precipitation Wind Pressure Humidity
    00:00 +8°C° 0 mm 1 mps 615 mmHg 51%
    01:00 +8°C° 0 mm 1 mps 614 mmHg 50%
    02:00 +8°C° 0 mm 1 mps 614 mmHg 50%
    03:00 +7°C° 0 mm 1 mps 614 mmHg 49%
    04:00 +7°C° 0 mm 1 mps 614 mmHg 49%
    05:00 +7°C° 0 mm 1 mps 614 mmHg 48%
    06:00 +7°C° 0 mm 1 mps 614 mmHg 48%
    07:00 +9°C° 0 mm 1 mps 615 mmHg 44%
    08:00 +11°C° 0 mm 1 mps 616 mmHg 39%
    09:00 +12°C° 0 mm 0 mps 617 mmHg 35%
    10:00 +14°C° 0 mm 1 mps 617 mmHg 35%
    11:00 +15°C° 0 mm 1 mps 617 mmHg 34%
    12:00 +16°C° 0 mm 2 mps 617 mmHg 34%
    13:00 +15°C° 0 mm 2 mps 617 mmHg 37%
    14:00 +15°C° 0 mm 2 mps 616 mmHg 41%
    15:00 +14°C° 0 mm 2 mps 616 mmHg 44%
    16:00 +13°C° 0 mm 1 mps 615 mmHg 52%
    17:00 +11°C° 0 mm 1 mps 615 mmHg 60%
    18:00 +10°C° 0 mm 1 mps 614 mmHg 68%
    19:00 +9°C° 0 mm 1 mps 614 mmHg 68%
    20:00 +9°C° 0 mm 1 mps 614 mmHg 68%
    21:00 +9°C° 0 mm 1 mps 614 mmHg 68%
    22:00 +9°C° 0 mm 1 mps 614 mmHg 67%
    23:00 +9°C° 0 mm 1 mps 614 mmHg 66%

    22 October, Monday

    Time Temperature Precipitation Wind Pressure Humidity
    00:00 +8°C° 0 mm 1 mps 614 mmHg 65%
    01:00 +8°C° 0 mm 1 mps 613 mmHg 65%
    02:00 +8°C° 0 mm 1 mps 613 mmHg 66%
    03:00 +7°C° 0 mm 1 mps 613 mmHg 66%
    04:00 +7°C° 0 mm 1 mps 613 mmHg 64%
    05:00 +7°C° 0 mm 1 mps 613 mmHg 63%
    06:00 +7°C° 0 mm 1 mps 613 mmHg 62%
    07:00 +9°C° 0 mm 1 mps 614 mmHg 57%
    08:00 +11°C° 0 mm 1 mps 614 mmHg 52%
    09:00 +13°C° 0 mm 1 mps 615 mmHg 47%
    10:00 +13°C° 0 mm 1 mps 615 mmHg 46%
    11:00 +14°C° 0 mm 2 mps 616 mmHg 44%
    12:00 +15°C° 0 mm 2 mps 616 mmHg 43%
    13:00 +15°C° 0 mm 2 mps 616 mmHg 46%
    14:00 +15°C° 0 mm 2 mps 615 mmHg 49%
    15:00 +14°C° 0 mm 2 mps 615 mmHg 52%
    16:00 +13°C° 0.1 mm 1 mps 615 mmHg 61%
    17:00 +11°C° 0.1 mm 1 mps 614 mmHg 70%
    18:00 +8°C° 0.1 mm 0 mps 614 mmHg 79%
    19:00 +9°C° 0.2 mm 1 mps 614 mmHg 80%
    20:00 +9°C° 0.2 mm 1 mps 615 mmHg 81%
    21:00 +9°C° 0.2 mm 1 mps 615 mmHg 82%
    22:00 +9°C° 0.1 mm 1 mps 615 mmHg 82%
    23:00 +8°C° 0.1 mm 1 mps 614 mmHg 82%

    23 October, Tuesday

    Time Temperature Precipitation Wind Pressure Humidity
    00:00 +7°C° 0.1 mm 0 mps 614 mmHg 82%
    01:00 +8°C° 0 mm 1 mps 614 mmHg 80%
    02:00 +7°C° 0 mm 1 mps 614 mmHg 78%
    03:00 +7°C° 0 mm 1 mps 614 mmHg 76%
    04:00 +7°C° 0 mm 1 mps 614 mmHg 73%
    05:00 +7°C° 0 mm 1 mps 614 mmHg 71%
    06:00 +7°C° 0 mm 1 mps 614 mmHg 68%
    07:00 +9°C° 0 mm 1 mps 615 mmHg 61%
    08:00 +11°C° 0 mm 1 mps 616 mmHg 54%
    09:00 +13°C° 0 mm 1 mps 616 mmHg 48%
    10:00 +14°C° 0 mm 1 mps 616 mmHg 46%
    11:00 +15°C° 0 mm 2 mps 617 mmHg 44%
    12:00 +16°C° 0 mm 2 mps 617 mmHg 42%
    13:00 +15°C° 0 mm 2 mps 617 mmHg 43%
    14:00 +15°C° 0 mm 2 mps 616 mmHg 45%
    15:00 +15°C° 0 mm 2 mps 616 mmHg 46%
    16:00 +13°C° 0 mm 2 mps 615 mmHg 52%
    17:00 +12°C° 0 mm 1 mps 615 mmHg 59%
    18:00 +10°C° 0 mm 1 mps 615 mmHg 65%
    19:00 +10°C° 0 mm 1 mps 614 mmHg 63%
    20:00 +9°C° 0 mm 2 mps 614 mmHg 61%
    21:00 +9°C° 0 mm 2 mps 614 mmHg 59%
    22:00 +9°C° 0 mm 2 mps 614 mmHg 59%
    23:00 +8°C° 0 mm 2 mps 614 mmHg 60%

    24 October, Wednesday

    Time Temperature Precipitation Wind Pressure Humidity
    00:00 +8°C° 0 mm 2 mps 613 mmHg 60%
    01:00 +8°C° 0 mm 2 mps 613 mmHg 61%
    02:00 +7°C° 0 mm 2 mps 613 mmHg 62%
    03:00 +7°C° 0 mm 2 mps 613 mmHg 63%
    04:00 +7°C° 0 mm 2 mps 613 mmHg 63%
    05:00 +7°C° 0 mm 2 mps 612 mmHg 63%
    06:00 +7°C° 0 mm 2 mps 612 mmHg 63%
    07:00 +9°C° 0 mm 2 mps 613 mmHg 57%
    08:00 +12°C° 0 mm 2 mps 614 mmHg 51%
    09:00 +14°C° 0 mm 2 mps 614 mmHg 45%
    10:00 +15°C° 0 mm 2 mps 614 mmHg 42%
    11:00 +16°C° 0 mm 2 mps 614 mmHg 38%
    12:00 +18°C° 0 mm 3 mps 614 mmHg 35%
    13:00 +17°C° 0 mm 3 mps 613 mmHg 36%
    14:00 +17°C° 0 mm 3 mps 613 mmHg 37%
    15:00 +17°C° 0 mm 3 mps 612 mmHg 38%
    16:00 +14°C° 0 mm 3 mps 612 mmHg 44%
    17:00 +14°C° 0 mm 2 mps 611 mmHg 50%
    18:00 +12°C° 0 mm 2 mps 610 mmHg 55%
    19:00 +11°C° 0 mm 3 mps 610 mmHg 55%
    20:00 +10°C° 0 mm 3 mps 609 mmHg 55%
    21:00 +10°C° 0 mm 3 mps 609 mmHg 55%
    22:00 +10°C° 0 mm 3 mps 609 mmHg 54%
    23:00 +10°C° 0 mm 3 mps 608 mmHg 53%
    Show more